Weather History for Whiteville, NC

Change the Weather History Date:

Friday, February 1, 2013

  Actual Average (KLBT) Record (KLBT)
Temperature  
Mean Temperature 40 °F 44 °F  
Max Temperature 52 °F 55 °F 82 °F (2002)
Min Temperature 27 °F 34 °F 21 °F (2004)
Degree Days  
Heating Degree Days 26 21  
Month to date heating degree days 21  
Since 1 July heating degree days 1740  
Cooling Degree Days 0 0  
Month to date cooling degree days 0  
Year to date cooling degree days 1  
Moisture  
Dew Point 16 °F    
Average Humidity 37    
Maximum Humidity 66    
Minimum Humidity 12    
Precipitation  
Precipitation 0.00 in 0.08 in 0.73 in (2007)
Month to date precipitation 0.08  
Year to date precipitation 3.05  
Sea Level Pressure  
Sea Level Pressure 30.19 in    
Wind  
Wind Speed 7 mph (WSW)    
Max Wind Speed 16 mph    
Max Gust Speed 28 mph    
Visibility 10 miles    
Events      
T = Trace of Precipitation, MM = Missing Value Source: NWS Daily Summary

Daily Weather History Graph

Daily Weather History Graph

Search for Another Location

Airport:

Trip Planner

Search our weather history database for the weather conditions in past years. The results will help you decide how hot, cold, wet, or windy it might be!

Date:

Astronomy

Feb. 01, 2013 Rise Set
Actual Time 7:12 AM EST 5:45 PM EST
Civil Twilight 6:45 AM EST 6:11 PM EST
Nautical Twilight 6:15 AM EST 6:41 PM EST
Astronomical Twilight 5:46 AM EST 7:11 PM EST
Moon 11:31 PM EST (2/1) 10:01 AM EST (2/1)
Length of Visible Light 11h 25m
Length of Day
10h 33m
Waning Gibbous, 70% of the Moon is Illuminated
Feb 1
Waning Gibbous
Feb 3
Last Quarter
Feb 10
New
Feb 17
First Quarter
Feb 25
Full

Hourly Weather History & Observations

Time (EST) Temp. Windchill Dew Point Humidity Pressure Visibility Wind Dir Wind Speed Gust Speed Precip Events Conditions
12:15 AM 43.0 °F 39.5 °F 24.4 °F 48% 30.11 in 10.0 mi SW 5.8 mph - N/A   Clear
12:35 AM 42.8 °F 39.3 °F 24.6 °F 49% 30.11 in 10.0 mi SW 5.8 mph - N/A   Clear
12:55 AM 42.8 °F 39.3 °F 24.3 °F 48% 30.11 in 10.0 mi SW 5.8 mph - N/A   Clear
1:15 AM 42.8 °F 39.3 °F 24.4 °F 48% 30.11 in 10.0 mi SW 5.8 mph - N/A   Clear
1:35 AM 42.6 °F 39.0 °F 24.6 °F 49% 30.10 in 10.0 mi SW 5.8 mph - N/A   Clear
1:55 AM 42.4 °F 38.1 °F 24.8 °F 50% 30.09 in 10.0 mi SW 6.9 mph - N/A   Clear
2:15 AM 42.1 °F 38.4 °F 24.6 °F 50% 30.08 in 10.0 mi SW 5.8 mph - N/A   Clear
2:35 AM 42.1 °F 39.2 °F 24.8 °F 50% 30.08 in 10.0 mi SW 4.6 mph - N/A   Clear
3:15 AM 42.3 °F 37.3 °F 24.8 °F 50% 30.08 in 10.0 mi SW 8.1 mph - N/A   Clear
3:35 AM 42.4 °F 38.1 °F 24.6 °F 49% 30.08 in 10.0 mi SW 6.9 mph - N/A   Clear
3:55 AM 42.8 °F 39.3 °F 24.3 °F 48% 30.08 in 10.0 mi SW 5.8 mph - N/A   Clear
4:15 AM 42.8 °F 38.0 °F 24.1 °F 48% 30.07 in 10.0 mi SW 8.1 mph - N/A   Clear
4:35 AM 43.7 °F 38.6 °F 23.9 °F 46% 30.06 in 10.0 mi SW 9.2 mph - N/A   Clear
4:55 AM 43.9 °F 38.8 °F 23.7 °F 45% 30.06 in 10.0 mi SW 9.2 mph - N/A   Clear
5:15 AM 44.2 °F 38.4 °F 23.7 °F 44% 30.05 in 10.0 mi SW 11.5 mph 16.1 mph N/A   Clear
5:35 AM 44.6 °F 38.8 °F 23.9 °F 44% 30.04 in 10.0 mi SW 11.5 mph - N/A   Clear
5:55 AM 45.3 °F 40.1 °F 23.7 °F 43% 30.04 in 10.0 mi SW 10.4 mph 18.4 mph N/A   Clear
6:15 AM 45.9 °F 40.0 °F 23.7 °F 42% 30.03 in 10.0 mi SW 12.7 mph 20.7 mph N/A   Clear
6:35 AM 46.4 °F 41.9 °F 23.4 °F 40% 30.04 in 10.0 mi SW 9.2 mph 19.6 mph N/A   Clear
6:55 AM 45.5 °F 40.8 °F 24.3 °F 43% 30.05 in 10.0 mi SW 9.2 mph 17.3 mph N/A   Clear
7:15 AM 45.1 °F 38.1 °F 24.4 °F 44% 30.05 in 10.0 mi SSW 16.1 mph 23.0 mph N/A   Clear
7:35 AM 45.9 °F 40.4 °F 24.3 °F 43% 30.05 in 10.0 mi SW 11.5 mph 21.9 mph N/A   Clear
7:55 AM 46.6 °F - 24.4 °F 42% 30.05 in 10.0 mi SW 13.8 mph 23.0 mph N/A   Clear
8:15 AM 47.5 °F - 24.6 °F 41% 30.06 in 10.0 mi SW 15.0 mph 19.6 mph N/A   Clear
8:35 AM 48.6 °F - 24.8 °F 39% 30.07 in 10.0 mi SW 10.4 mph 24.2 mph N/A   Clear
9:15 AM 50.4 °F - 26.1 °F 39% 30.09 in 10.0 mi West 9.2 mph 20.7 mph N/A   Clear
9:35 AM 50.4 °F - 26.1 °F 39% 30.10 in 10.0 mi WSW 10.4 mph 23.0 mph N/A   Clear
10:15 AM 51.8 °F - 26.4 °F 37% 30.12 in 10.0 mi West 16.1 mph 27.6 mph N/A   Scattered Clouds
10:35 AM 52.2 °F - 26.2 °F 37% 30.13 in 10.0 mi West 10.4 mph 26.5 mph N/A   Scattered Clouds
10:55 AM 52.0 °F - 25.5 °F 36% 30.13 in 10.0 mi West 11.5 mph 21.9 mph N/A   Scattered Clouds
11:15 AM 51.3 °F - 24.1 °F 35% 30.14 in 10.0 mi WNW 12.7 mph 21.9 mph N/A   Scattered Clouds
11:35 AM 51.3 °F - 26.2 °F 38% 30.16 in 10.0 mi NW 10.4 mph 24.2 mph N/A   Scattered Clouds
12:15 PM 49.1 °F - 18.5 °F 30% 30.19 in 10.0 mi NNW 8.1 mph 16.1 mph N/A   Clear
12:35 PM 49.3 °F - 14.7 °F 25% 30.19 in 10.0 mi NW 10.4 mph 19.6 mph N/A   Clear
12:55 PM 49.1 °F - 10.0 °F 21% 30.19 in 10.0 mi WNW 10.4 mph 17.3 mph N/A   Clear
1:15 PM 49.1 °F - 3.0 °F 15% 30.19 in 10.0 mi WNW 10.4 mph 19.6 mph N/A   Clear
1:35 PM 49.1 °F - 0.1 °F 13% 30.20 in 10.0 mi WNW 9.2 mph 26.5 mph N/A   Clear
2:15 PM 48.6 °F - -2.4 °F 12% 30.20 in 10.0 mi WNW 8.1 mph - N/A   Clear
2:35 PM 48.2 °F - -1.5 °F 13% 30.21 in 10.0 mi West 6.9 mph - N/A   Clear
3:15 PM 47.5 °F - -1.1 °F 13% 30.22 in 10.0 mi NW 9.2 mph 16.1 mph N/A   Clear
3:35 PM 46.4 °F 45.2 °F -0.9 °F 14% 30.24 in 10.0 mi North 3.5 mph - N/A   Clear
3:55 PM 46.6 °F - -0.9 °F 14% 30.23 in 10.0 mi NW 8.1 mph - N/A   Clear
4:15 PM 46.4 °F 43.5 °F -0.0 °F 15% 30.25 in 10.0 mi WNW 5.8 mph - N/A   Clear
4:35 PM 45.7 °F 41.0 °F -1.1 °F 14% 30.25 in 10.0 mi West 9.2 mph - N/A   Clear
4:55 PM 44.6 °F 42.2 °F -3.3 °F 13% 30.26 in 10.0 mi WNW 4.6 mph - N/A   Clear
5:15 PM 43.2 °F 39.7 °F -3.1 °F 14% 30.27 in 10.0 mi WNW 5.8 mph - N/A   Clear
5:35 PM 42.4 °F 40.7 °F -0.0 °F 17% 30.28 in 10.0 mi WNW 3.5 mph - N/A   Clear
6:15 PM 40.1 °F - 5.4 °F 24% 30.29 in 10.0 mi Calm Calm - N/A   Clear
6:35 PM 40.3 °F 38.2 °F -1.7 °F 17% 30.29 in 10.0 mi WNW 3.5 mph - N/A   Clear
6:55 PM 39.6 °F - -1.5 °F 18% 30.31 in 10.0 mi Calm Calm - N/A   Clear
7:15 PM 37.6 °F - 7.5 °F 29% 30.32 in 10.0 mi Calm Calm - N/A   Clear
7:35 PM 36.1 °F - 5.2 °F 27% 30.33 in 10.0 mi Calm Calm - N/A   Clear
7:55 PM 35.1 °F - 6.4 °F 30% 30.33 in 10.0 mi Calm Calm - N/A   Clear
8:15 PM 34.7 °F - 5.9 °F 30% 30.34 in 10.0 mi Calm Calm - N/A   Clear
8:35 PM 32.5 °F - 11.1 °F 41% 30.35 in 10.0 mi Calm Calm - N/A   Clear
8:55 PM 32.4 °F - 14.0 °F 47% 30.35 in 10.0 mi Calm Calm - N/A   Clear
9:15 PM 32.0 °F - 13.8 °F 47% 30.36 in 10.0 mi Calm Calm - N/A   Clear
9:35 PM 30.7 °F - 13.6 °F 49% 30.37 in 10.0 mi Calm Calm - N/A   Clear
9:55 PM 30.0 °F - 15.4 °F 55% 30.37 in 10.0 mi Calm Calm - N/A   Clear
10:15 PM 30.4 °F - 15.3 °F 53% 30.37 in 10.0 mi Calm Calm - N/A   Clear
10:35 PM 28.2 °F - 16.7 °F 62% 30.37 in 10.0 mi Calm Calm - N/A   Clear
10:55 PM 27.7 °F - 16.7 °F 63% 30.37 in 10.0 mi Calm Calm - N/A   Clear
11:15 PM 29.1 °F - 18.9 °F 66% 30.38 in 10.0 mi Calm Calm - N/A   Clear
11:35 PM 28.8 °F - 17.6 °F 63% 30.38 in 10.0 mi Calm Calm - N/A   Clear
11:55 PM 29.3 °F - 17.1 °F 60% 30.38 in 10.0 mi Calm Calm - N/A   Clear